Terminal Aerodrome Forecast
Issued by NWS

Home | Current Version | Previous Version | Text Only | Print | Product List | Glossary On
Versions: 1 2 3 4 5 6 7 8 9 10 11 12 13 14 15 16 17 18 19 20 21 22 23 24 25 26 27
000
FTUS41 KOKX 260800 AAA
TAFHPN
TAF AMD
KHPN 260832Z 2609/2706 02006KT P6SM BKN060
     FM261100 05008KT P6SM BKN030
      TEMPO 2613/2616 3SM -SN BR BKN015
     FM261600 05010G17KT 1SM -SN BR BKN007
     FM261900 05012G20KT 3/4SM -SN BR BKN007
     FM262300 03017G25KT 1/2SM SN FZFG VV005
     FM270300 36022G30KT 1/2SM SN FZFG VV005
      AMD NOT SKED=

USA.gov is the U.S. government's official web portal to all federal, state and local government web resources and services.